Time,TemperatureF,DewpointF,PressureIn,WindDirection,WindDirectionDegrees,WindSpeedMPH,WindSpeedGustMPH,Humidity,HourlyPrecipIn,Conditions,Clouds,dailyrainin,SolarRadiationWatts/m^2,SoftwareType,DateUTC
2013-07-02 00:01:00,69.0,68.0,-100.00,SSW,212,4.0,7.0,95,0.01,,,0.06,0.000000,,2013-07-02 04:01:00,
2013-07-02 00:22:00,69.0,68.0,-100.00,SSW,212,4.0,7.0,95,0.01,,,0.06,0.000000,,2013-07-02 04:22:00,
2013-07-02 00:32:00,69.0,68.0,-100.00,SSW,212,4.0,7.0,95,0.01,,,0.06,0.000000,,2013-07-02 04:32:00,
2013-07-02 00:42:00,69.0,68.0,-100.00,SSW,212,4.0,7.0,95,0.01,,,0.06,0.000000,,2013-07-02 04:42:00,
2013-07-02 00:54:00,69.0,68.0,-100.00,SSW,212,4.0,7.0,95,0.01,,,0.06,0.000000,,2013-07-02 04:54:00,
2013-07-02 01:01:00,69.0,68.0,-100.00,SSW,199,2.0,7.0,95,0.00,,,0.06,0.000000,,2013-07-02 05:01:00,
2013-07-02 01:22:00,69.0,68.0,-100.00,SSW,199,2.0,7.0,95,0.00,,,0.06,0.000000,,2013-07-02 05:22:00,
2013-07-02 01:32:00,69.0,68.0,-100.00,SSW,199,2.0,7.0,95,0.00,,,0.06,0.000000,,2013-07-02 05:32:00,
2013-07-02 01:43:00,69.0,68.0,-100.00,SSW,199,2.0,7.0,95,0.00,,,0.06,0.000000,,2013-07-02 05:43:00,
2013-07-02 01:53:00,69.0,68.0,-100.00,SSW,199,2.0,7.0,95,0.00,,,0.06,0.000000,,2013-07-02 05:53:00,
2013-07-02 02:01:00,68.0,67.0,-100.00,SSW,200,3.0,7.0,96,0.00,,,0.05,0.000000,,2013-07-02 06:01:00,
2013-07-02 02:34:00,68.0,67.0,-100.00,SSW,200,3.0,7.0,96,0.00,,,0.05,0.000000,,2013-07-02 06:34:00,
2013-07-02 02:43:00,68.0,67.0,-100.00,SSW,200,3.0,7.0,96,0.00,,,0.05,0.000000,,2013-07-02 06:43:00,
2013-07-02 02:53:00,68.0,67.0,-100.00,SSW,200,3.0,7.0,96,0.00,,,0.05,0.000000,,2013-07-02 06:53:00,
2013-07-02 03:01:00,67.0,66.0,-100.00,SSW,197,2.0,5.0,97,0.00,,,0.05,0.000000,,2013-07-02 07:01:00,
2013-07-02 03:34:00,67.0,66.0,-100.00,SSW,197,2.0,5.0,97,0.00,,,0.05,0.000000,,2013-07-02 07:34:00,
2013-07-02 03:44:00,67.0,66.0,-100.00,SSW,197,2.0,5.0,97,0.00,,,0.05,0.000000,,2013-07-02 07:44:00,
2013-07-02 03:53:00,67.0,66.0,-100.00,SSW,197,2.0,5.0,97,0.00,,,0.05,0.000000,,2013-07-02 07:53:00,
2013-07-02 04:01:00,67.0,66.0,-100.00,SSW,198,2.0,4.0,97,0.00,,,0.03,0.000000,,2013-07-02 08:01:00,
2013-07-02 04:33:00,67.0,66.0,-100.00,SSW,198,2.0,4.0,97,0.00,,,0.03,0.000000,,2013-07-02 08:33:00,
2013-07-02 04:44:00,67.0,66.0,-100.00,SSW,198,2.0,4.0,97,0.00,,,0.03,0.000000,,2013-07-02 08:44:00,
2013-07-02 04:53:00,67.0,66.0,-100.00,SSW,198,2.0,4.0,97,0.00,,,0.03,0.000000,,2013-07-02 08:53:00,
2013-07-02 05:01:00,68.0,67.0,-100.00,NNE,17,1.0,4.0,97,0.00,,,0.02,0.000000,,2013-07-02 09:01:00,
2013-07-02 05:33:00,68.0,67.0,-100.00,NNE,17,1.0,4.0,97,0.00,,,0.02,0.000000,,2013-07-02 09:33:00,
2013-07-02 05:43:00,68.0,67.0,-100.00,NNE,17,1.0,4.0,97,0.00,,,0.02,0.000000,,2013-07-02 09:43:00,
2013-07-02 05:52:00,68.0,67.0,-100.00,NNE,17,1.0,4.0,97,0.00,,,0.02,0.000000,,2013-07-02 09:52:00,
2013-07-02 06:01:00,68.0,67.0,-100.00,South,186,2.0,6.0,97,0.00,,,0.02,0.000000,,2013-07-02 10:01:00,
2013-07-02 06:33:00,68.0,67.0,-100.00,South,186,2.0,6.0,97,0.00,,,0.02,0.000000,,2013-07-02 10:33:00,
2013-07-02 06:44:00,68.0,67.0,-100.00,South,186,2.0,6.0,97,0.00,,,0.02,0.000000,,2013-07-02 10:44:00,
2013-07-02 06:52:00,68.0,67.0,-100.00,South,186,2.0,6.0,97,0.00,,,0.02,0.000000,,2013-07-02 10:52:00,
2013-07-02 07:01:00,68.0,67.0,-100.00,SSW,206,3.0,6.0,97,0.00,,,0.02,14.000000,,2013-07-02 11:01:00,
2013-07-02 07:22:00,68.0,67.0,-100.00,SSW,206,3.0,6.0,97,0.00,,,0.02,14.000000,,2013-07-02 11:22:00,
2013-07-02 07:33:00,68.0,67.0,-100.00,SSW,206,3.0,6.0,97,0.00,,,0.02,14.000000,,2013-07-02 11:33:00,
2013-07-02 07:42:00,68.0,67.0,-100.00,SSW,206,3.0,6.0,97,0.00,,,0.02,14.000000,,2013-07-02 11:42:00,
2013-07-02 07:52:00,68.0,67.0,-100.00,SSW,206,3.0,6.0,97,0.00,,,0.02,14.000000,,2013-07-02 11:52:00,
2013-07-02 08:01:00,68.0,67.0,-100.00,SSW,199,3.0,7.0,97,0.00,,,0.02,46.000000,,2013-07-02 12:01:00,
2013-07-02 08:23:00,68.0,67.0,-100.00,SSW,199,3.0,7.0,97,0.00,,,0.02,46.000000,,2013-07-02 12:23:00,
2013-07-02 08:33:00,68.0,67.0,-100.00,SSW,199,3.0,7.0,97,0.00,,,0.02,46.000000,,2013-07-02 12:33:00,
2013-07-02 08:43:00,68.0,67.0,-100.00,SSW,199,3.0,7.0,97,0.00,,,0.02,46.000000,,2013-07-02 12:43:00,
2013-07-02 08:52:00,68.0,67.0,-100.00,SSW,199,3.0,7.0,97,0.00,,,0.02,46.000000,,2013-07-02 12:52:00,
2013-07-02 09:01:00,68.0,67.0,-100.00,SSW,199,3.0,9.0,95,0.00,,,0.01,82.000000,,2013-07-02 13:01:00,
2013-07-02 09:34:00,68.0,67.0,-100.00,SSW,199,3.0,9.0,95,0.00,,,0.01,82.000000,,2013-07-02 13:34:00,
2013-07-02 09:43:00,68.0,67.0,-100.00,SSW,199,3.0,9.0,95,0.00,,,0.01,82.000000,,2013-07-02 13:43:00,
2013-07-02 09:52:00,68.0,67.0,-100.00,SSW,199,3.0,9.0,95,0.00,,,0.01,82.000000,,2013-07-02 13:52:00,
2013-07-02 10:01:00,72.0,69.0,-100.00,South,190,4.0,9.0,90,0.00,,,0.01,315.000000,,2013-07-02 14:01:00,
2013-07-02 10:33:00,72.0,69.0,-100.00,South,190,4.0,9.0,90,0.00,,,0.01,315.000000,,2013-07-02 14:33:00,
2013-07-02 10:43:00,72.0,69.0,-100.00,South,190,4.0,9.0,90,0.00,,,0.01,315.000000,,2013-07-02 14:43:00,
2013-07-02 10:53:00,72.0,69.0,-100.00,South,190,4.0,9.0,90,0.00,,,0.01,315.000000,,2013-07-02 14:53:00,
2013-07-02 11:01:00,73.0,68.0,-100.00,South,190,3.0,9.0,84,0.00,,,0.01,411.000000,,2013-07-02 15:01:00,
2013-07-02 11:33:00,73.0,68.0,-100.00,South,190,3.0,9.0,84,0.00,,,0.01,411.000000,,2013-07-02 15:33:00,
2013-07-02 11:44:00,73.0,68.0,-100.00,South,190,3.0,9.0,84,0.00,,,0.01,411.000000,,2013-07-02 15:44:00,
2013-07-02 11:53:00,73.0,68.0,-100.00,South,190,3.0,9.0,84,0.00,,,0.01,411.000000,,2013-07-02 15:53:00,
2013-07-02 12:01:00,70.0,67.0,-100.00,SSW,203,3.0,7.0,91,0.03,,,0.04,202.000000,,2013-07-02 16:01:00,
2013-07-02 12:33:00,70.0,67.0,-100.00,SSW,203,3.0,7.0,91,0.03,,,0.04,202.000000,,2013-07-02 16:33:00,
2013-07-02 12:43:00,70.0,67.0,-100.00,SSW,203,3.0,7.0,91,0.03,,,0.04,202.000000,,2013-07-02 16:43:00,
2013-07-02 12:52:00,70.0,67.0,-100.00,SSW,203,3.0,7.0,91,0.03,,,0.04,202.000000,,2013-07-02 16:52:00,
2013-07-02 13:01:00,69.0,68.0,-100.00,SSW,199,5.0,8.0,98,0.10,,,0.14,140.000000,,2013-07-02 17:01:00,
2013-07-02 13:43:00,69.0,68.0,-100.00,SSW,199,5.0,8.0,98,0.10,,,0.14,140.000000,,2013-07-02 17:43:00,
2013-07-02 13:53:00,69.0,68.0,-100.00,SSW,199,5.0,8.0,98,0.10,,,0.14,140.000000,,2013-07-02 17:53:00,
2013-07-02 14:01:00,68.0,67.0,-100.00,SSW,206,4.0,10.0,97,0.01,,,0.15,302.000000,,2013-07-02 18:01:00,
2013-07-02 14:23:00,68.0,67.0,-100.00,SSW,206,4.0,10.0,97,0.01,,,0.15,302.000000,,2013-07-02 18:23:00,
2013-07-02 14:34:00,68.0,67.0,-100.00,SSW,206,4.0,10.0,97,0.01,,,0.15,302.000000,,2013-07-02 18:34:00,
2013-07-02 14:43:00,68.0,67.0,-100.00,SSW,206,4.0,10.0,97,0.01,,,0.15,302.000000,,2013-07-02 18:43:00,
2013-07-02 14:53:00,68.0,67.0,-100.00,SSW,206,4.0,10.0,97,0.01,,,0.15,302.000000,,2013-07-02 18:53:00,
2013-07-02 15:01:00,69.0,68.0,-100.00,SSW,199,3.0,9.0,97,0.02,,,-99.99,313.000000,,2013-07-02 19:01:00,
2013-07-02 15:34:00,69.0,68.0,-100.00,SSW,199,3.0,9.0,97,0.02,,,-99.99,313.000000,,2013-07-02 19:34:00,
2013-07-02 15:43:00,69.0,68.0,-100.00,SSW,199,3.0,9.0,97,0.02,,,-99.99,313.000000,,2013-07-02 19:43:00,
2013-07-02 15:53:00,69.0,68.0,-100.00,SSW,199,3.0,9.0,97,0.02,,,-99.99,313.000000,,2013-07-02 19:53:00,
2013-07-02 16:01:00,70.0,69.0,-100.00,SSW,213,3.0,6.0,97,0.00,,,0.17,270.000000,,2013-07-02 20:01:00,
2013-07-02 16:33:00,70.0,69.0,-100.00,SSW,213,3.0,6.0,97,0.00,,,0.17,270.000000,,2013-07-02 20:33:00,
2013-07-02 16:43:00,70.0,69.0,-100.00,SSW,213,3.0,6.0,97,0.00,,,0.17,270.000000,,2013-07-02 20:43:00,
2013-07-02 16:52:00,70.0,69.0,-100.00,SSW,213,3.0,6.0,97,0.00,,,0.17,270.000000,,2013-07-02 20:52:00,
2013-07-02 17:01:00,75.0,73.0,-100.00,SSW,193,2.0,6.0,93,0.00,,,0.17,457.000000,,2013-07-02 21:01:00,
2013-07-02 17:33:00,75.0,73.0,-100.00,SSW,193,2.0,6.0,93,0.00,,,0.17,457.000000,,2013-07-02 21:33:00,
2013-07-02 17:44:00,75.0,73.0,-100.00,SSW,193,2.0,6.0,93,0.00,,,0.17,457.000000,,2013-07-02 21:44:00,
2013-07-02 17:52:00,75.0,73.0,-100.00,SSW,193,2.0,6.0,93,0.00,,,0.17,457.000000,,2013-07-02 21:52:00,
2013-07-02 18:01:00,70.0,66.0,-100.00,SSW,197,3.0,7.0,86,0.00,,,0.17,230.000000,,2013-07-02 22:01:00,
2013-07-02 18:34:00,70.0,66.0,-100.00,SSW,197,3.0,7.0,86,0.00,,,0.17,230.000000,,2013-07-02 22:34:00,
2013-07-02 18:43:00,70.0,66.0,-100.00,SSW,197,3.0,7.0,86,0.00,,,0.17,230.000000,,2013-07-02 22:43:00,
2013-07-02 18:53:00,70.0,66.0,-100.00,SSW,197,3.0,7.0,86,0.00,,,0.17,230.000000,,2013-07-02 22:53:00,
2013-07-02 19:01:00,68.0,66.0,-100.00,SSW,200,4.0,6.0,93,0.00,,,0.17,52.000000,,2013-07-02 23:01:00,
2013-07-02 19:22:00,68.0,66.0,-100.00,SSW,200,4.0,6.0,93,0.00,,,0.17,52.000000,,2013-07-02 23:22:00,
2013-07-02 19:33:00,68.0,66.0,-100.00,SSW,200,4.0,6.0,93,0.00,,,0.17,52.000000,,2013-07-02 23:33:00,
2013-07-02 19:44:00,68.0,66.0,-100.00,SSW,200,4.0,6.0,93,0.00,,,0.17,52.000000,,2013-07-02 23:44:00,
2013-07-02 19:52:00,68.0,66.0,-100.00,SSW,200,4.0,6.0,93,0.00,,,0.17,52.000000,,2013-07-02 23:52:00,
2013-07-02 20:01:00,67.0,66.0,-100.00,SSW,199,5.0,10.0,98,0.03,,,0.20,21.000000,,2013-07-03 00:01:00,
2013-07-02 20:33:00,67.0,66.0,-100.00,SSW,199,5.0,10.0,98,0.03,,,0.20,21.000000,,2013-07-03 00:33:00,
2013-07-02 20:44:00,67.0,66.0,-100.00,SSW,199,5.0,10.0,98,0.03,,,0.20,21.000000,,2013-07-03 00:44:00,
2013-07-02 20:52:00,67.0,66.0,-100.00,SSW,199,5.0,10.0,98,0.03,,,0.20,21.000000,,2013-07-03 00:52:00,
2013-07-02 21:01:00,66.0,65.0,-100.00,SSW,200,4.0,14.0,98,0.01,,,0.21,2.000000,,2013-07-03 01:01:00,
2013-07-02 21:33:00,66.0,65.0,-100.00,SSW,200,4.0,14.0,98,0.01,,,0.21,2.000000,,2013-07-03 01:33:00,
2013-07-02 21:43:00,66.0,65.0,-100.00,SSW,200,4.0,14.0,98,0.01,,,0.21,2.000000,,2013-07-03 01:43:00,
2013-07-02 22:00:00,66.0,65.0,-100.00,SSW,200,4.0,14.0,98,0.01,,,0.21,2.000000,,2013-07-03 02:00:00,
2013-07-02 22:01:00,66.0,66.0,-100.00,SSW,200,6.0,16.0,99,0.02,,,-99.99,0.000000,,2013-07-03 02:01:00,
2013-07-02 22:40:00,66.0,66.0,-100.00,SSW,200,6.0,16.0,99,0.02,,,-99.99,0.000000,,2013-07-03 02:40:00,
2013-07-02 22:46:00,66.0,66.0,-100.00,SSW,200,6.0,16.0,99,0.02,,,-99.99,0.000000,,2013-07-03 02:46:00,
2013-07-02 23:01:00,67.0,67.0,-100.00,SSW,193,3.0,12.0,99,0.03,,,0.26,0.000000,,2013-07-03 03:01:00,
2013-07-02 23:36:00,67.0,67.0,-100.00,SSW,193,3.0,12.0,99,0.03,,,0.26,0.000000,,2013-07-03 03:36:00,
2013-07-02 23:49:00,67.0,67.0,-100.00,SSW,193,3.0,12.0,99,0.03,,,0.26,0.000000,,2013-07-03 03:49:00,
2013-07-02 23:59:00,67.0,67.0,-100.00,SSW,193,3.0,12.0,99,0.03,,,0.26,0.000000,,2013-07-03 03:59:00,